Wind_Speed
12 11 10 10 9 8 7 7 6 6 5 5 6 7 8 9 10 11 12 12 13 13 14 15 15 16 16 17 18 18 19 20 21 22 23 24 25 26 27 28 28 29 30 30 31 33 36 38 39 41 42 43 43 42 42 40 38 38 37 37 38 37 38 38 42 50 50 45 46 49 48 48 50 49 48 47 45 40 39 37 36 35 36 38 40
12 11 11 10 9 8 7 6 5 5 5 6 8 9 11 12 13 14 15 15 16 17 18 18 19 19 20 20 21 22 23 23 24 26 27 27 28 29 30 31 31 32 32 33 33 34 36 37 38 39 39 41 42 43 44 44 43 43 41 40 40 40 39 40 42 48 52 50 47 48 48 47 49 50 48 49 48 45 43 41 38 36 36 36 37
13 12 11 9 8 7 6 5 5 6 7 8 10 11 13 14 15 16 17 18 20 21 21 22 22 23 23 23 24 25 26 27 27 29 30 31 32 32 33 34 34 35 35 36 36 37 38 39 39 39 39 40 40 40 41 43 44 46 46 45 45 44 42 41 42 46 52 53 49 47 48 48 48 50 49 50 50 48 47 46 42 39 37 36 37
12 11 10 8 7 6 6 6 7 8 9 10 11 13 14 16 17 19 20 22 23 24 25 26 26 26 27 27 28 28 29 30 31 32 33 34 35 35 36 36 37 37 38 38 39 40 41 42 42 43 42 42 42 41 40 41 42 44 47 48 49 49 48 44 43 45 49 53 52 49 48 49 49 50 50 51 51 50 50 49 46 43 40 38 37
12 10 9 8 7 7 7 8 8 9 10 11 13 14 16 18 20 22 23 24 26 26 27 29 29 29 30 30 31 31 32 33 34 35 36 36 38 38 39 39 39 40 40 41 42 42 43 45 45 46 46 46 47 46 45 44 44 45 46 47 49 50 51 49 48 46 47 52 54 52 49 49 49 49 49 50 52 52 52 51 49 47 45 41 39
12 11 10 9 9 9 9 9 10 11 12 13 15 16 19 21 23 24 26 26 27 28 28 29 30 30 31 31 32 33 34 35 36 37 38 39 39 40 41 41 42 42 42 43 44 45 46 47 47 47 48 49 50 50 50 49 48 48 48 48 49 49 50 51 51 48 47 50 53 53 50 48 48 49 49 48 50 53 53 53 52 50 48 46 43
14 12 12 11 11 11 11 11 12 13 14 16 17 19 21 23 25 27 28 28 29 29 29 30 30 31 31 32 33 34 35 36 37 38 39 40 41 42 42 43 43 43 43 44 44 46 47 48 49 49 49 50 51 51 51 50 50 50 49 48 47 47 48 50 50 49 49 51 53 53 50 46 44 46 47 45 46 49 52 53 54 52 50 48 47
16 14 14 14 14 13 13 13 14 15 16 18 19 21 23 25 28 30 30 31 31 31 31 32 32 32 32 33 34 35 36 37 38 39 40 41 42 43 43 44 44 44 44 45 45 46 47 48 49 50 50 51 51 51 50 49 48 49 49 45 43 44 46 47 48 48 48 49 52 53 50 46 43 42 43 42 43 48 50 49 51 53 52 49 48
18 16 16 16 16 16 15 15 15 17 18 20 21 23 25 27 30 31 32 32 33 33 33 34 34 34 34 34 35 36 37 38 40 41 42 43 43 44 44 45 45 46 46 46 47 48 49 49 50 51 51 51 51 50 49 47 44 45 46 43 40 40 42 43 44 45 45 47 50 51 50 48 45 41 40 40 40 44 46 44 45 51 52 50 50
19 18 18 18 18 18 18 17 18 19 20 22 23 24 26 28 31 33 33 33 34 34 35 36 36 36 36 36 37 38 39 40 41 41 42 43 44 44 45 45 46 47 48 49 49 50 51 52 52 52 52 51 51 49 47 45 42 41 41 39 37 36 38 39 40 41 42 44 47 50 50 51 50 44 41 41 38 38 40 41 42 47 48 48 51
19 19 19 20 20 21 20 20 21 22 22 23 25 25 27 29 32 34 34 35 35 35 36 37 37 37 37 38 39 40 41 41 41 42 42 42 44 44 46 46 47 48 49 50 52 52 53 53 53 53 52 51 50 48 46 45 42 40 38 37 34 33 34 36 38 39 40 41 44 45 46 50 51 47 43 42 39 35 35 36 38 41 43 43 47
21 21 21 22 23 24 23 24 24 24 25 25 26 26 28 30 32 34 35 36 36 37 37 37 37 38 39 40 41 41 41 41 41 42 42 42 43 44 46 47 48 49 50 51 52 53 53 53 52 52 51 50 48 47 45 43 40 38 37 35 32 30 30 31 35 38 39 41 43 45 46 47 47 45 41 38 36 34 33 34 35 37 39 40 41
23 23 24 25 26 26 26 27 27 27 27 27 27 27 28 30 33 35 36 37 37 38 38 38 38 39 40 41 41 41 41 41 41 42 42 43 43 44 45 47 48 49 50 50 51 52 52 52 51 51 50 48 46 44 43 41 39 37 36 34 32 30 27 26 28 31 35 38 43 49 51 49 47 47 44 39 37 37 36 36 35 34 36 39 40
25 26 27 28 29 29 29 29 29 29 29 28 28 28 29 31 33 35 36 37 38 38 38 38 38 39 40 41 42 41 41 41 41 41 42 43 43 44 45 47 48 48 49 49 50 50 50 49 49 48 47 45 44 42 41 39 37 35 34 32 30 29 27 27 27 27 29 32 37 44 48 46 47 51 51 46 44 43 41 40 39 37 38 40 41
28 29 30 31 32 32 31 31 30 30 29 28 28 29 30 33 34 35 36 37 38 38 38 39 39 40 41 41 41 41 41 41 41 41 42 42 43 44 45 46 47 48 49 49 48 49 48 47 46 45 45 43 41 39 36 34 33 33 33 32 31 31 30 29 28 29 29 31 34 39 42 41 42 45 46 44 43 42 40 41 42 42 43 44 45
31 32 32 33 32 32 32 31 31 30 29 28 28 30 32 34 35 36 37 38 39 39 39 39 40 41 41 41 41 41 41 40 40 41 42 42 43 44 45 46 47 48 48 48 47 47 46 45 43 42 42 42 39 34 30 29 30 33 34 35 36 36 35 33 30 30 30 31 34 36 38 39 38 39 40 39 38 38 38 40 41 42 44 46 47
31 31 31 31 30 30 31 31 30 29 28 28 29 31 33 35 36 37 38 39 39 39 39 40 41 41 41 41 41 41 41 40 40 40 41 42 42 43 45 46 47 47 47 46 46 45 43 41 40 40 40 39 36 31 28 29 32 36 38 39 39 39 38 36 33 31 31 31 33 35 37 37 37 37 37 36 36 35 35 39 42 41 40 42 45
28 28 28 28 28 29 30 30 29 29 28 29 31 33 35 36 37 38 39 40 40 40 40 40 41 41 40 40 40 41 41 40 39 40 41 40 41 42 44 45 46 46 46 45 44 43 41 39 36 36 37 37 34 31 30 31 34 36 38 39 39 39 39 38 37 37 36 36 36 36 37 37 36 36 36 35 33 31 31 38 42 41 41 43 44
27 27 28 28 29 29 29 29 29 28 29 31 33 35 36 37 37 38 39 40 40 39 40 40 41 40 39 39 39 40 40 40 39 39 40 39 40 40 42 43 44 44 43 43 43 42 40 39 36 34 34 34 32 30 30 32 33 34 35 37 39 40 39 39 40 41 41 41 40 40 39 39 38 38 39 38 36 34 33 37 39 40 43 48 48
26 27 29 29 29 29 29 29 29 29 31 33 34 36 37 37 37 38 39 39 39 39 40 40 40 39 38 38 39 39 39 39 39 39 39 39 38 38 39 41 41 42 42 41 42 43 42 41 38 34 31 31 31 30 30 29 30 32 34 36 40 41 40 40 42 42 42 42 41 41 41 41 40 41 42 42 41 40 38 38 38 38 41 46 49
26 28 30 30 30 30 29 30 30 31 32 34 36 36 36 36 37 38 38 38 38 39 39 38 38 38 38 38 38 38 38 39 39 39 38 38 37 36 36 38 38 38 40 40 40 42 42 41 39 36 34 32 31 30 30 28 28 32 35 38 41 41 40 42 42 41 41 41 41 41 41 41 41 42 43 44 43 42 40 39 39 38 39 43 47
27 28 30 30 30 30 30 30 31 32 33 35 36 36 35 36 37 37 37 38 38 38 38 37 37 38 38 38 38 38 38 39 39 38 37 36 35 34 34 34 33 33 36 38 39 40 40 40 39 38 36 35 33 33 32 31 32 35 37 38 39 38 39 41 41 40 40 41 42 44 44 44 44 45 45 45 44 43 42 42 41 40 40 42 45
28 29 30 30 30 30 31 31 31 33 34 35 35 35 35 35 36 36 36 37 37 37 36 36 36 37 38 38 38 38 38 39 39 38 37 36 35 33 32 32 30 29 33 37 39 40 41 42 41 40 38 37 37 36 36 35 36 38 39 38 38 39 40 40 40 41 43 44 46 48 48 46 46 46 46 45 44 43 43 43 42 41 41 42 44
29 29 30 30 30 31 31 31 32 33 34 34 34 34 35 34 34 35 35 36 36 36 35 35 35 37 38 38 38 38 39 40 39 37 36 36 35 34 32 31 30 29 31 35 38 40 42 42 42 41 40 38 38 38 37 37 38 38 39 38 38 39 40 41 42 44 46 47 48 49 48 46 45 46 47 46 45 45 44 44 43 41 41 42 44
30 30 30 30 30 30 31 31 32 33 33 33 34 34 33 33 33 34 34 34 33 34 34 34 35 36 38 39 39 39 40 41 39 37 36 35 34 34 33 32 31 30 31 35 38 39 40 40 40 41 40 39 39 39 38 39 39 39 38 38 38 39 41 42 44 45 46 47 47 48 48 47 47 48 48 47 46 46 45 44 44 43 42 42 43
30 30 30 30 30 30 31 31 32 32 32 32 33 32 32 32 33 34 33 32 32 33 33 33 34 36 37 38 39 40 40 40 39 36 34 34 34 33 33 33 33 32 33 35 37 38 39 40 40 40 39 38 38 39 40 40 39 39 40 39 39 40 41 41 42 43 45 46 47 48 49 48 48 48 47 46 46 46 45 44 45 45 44 43 43
31 30 30 30 30 31 32 32 31 31 31 31 31 31 31 32 33 33 32 32 32 32 32 33 34 35 36 37 38 39 40 39 37 35 33 33 34 34 34 35 36 36 36 37 38 39 40 40 39 39 40 40 39 39 39 39 38 39 40 40 39 39 39 39 39 40 42 44 45 46 47 46 46 46 45 45 46 46 44 43 44 45 44 42 43
31 31 30 30 31 31 32 32 32 31 31 30 30 30 31 31 32 32 31 30 31 32 32 33 33 33 35 36 37 39 39 38 36 34 33 33 33 33 34 35 36 37 37 37 37 38 40 42 43 43 43 43 41 38 37 36 37 38 38 37 37 36 35 34 34 36 38 40 42 43 44 44 45 45 45 45 45 45 43 42 43 44 42 40 42
32 31 31 31 31 32 32 32 32 31 31 30 29 30 30 30 31 31 30 28 29 30 31 32 32 32 34 35 36 37 39 37 34 32 31 29 29 30 32 33 34 34 34 34 35 39 43 44 42 41 40 40 39 38 37 36 36 35 34 34 33 32 31 31 33 35 37 38 40 42 43 44 46 46 46 46 46 44 42 42 42 42 40 40 42
32 32 31 31 31 32 32 31 31 31 30 30 30 30 30 29 29 30 30 29 28 28 30 31 31 30 32 33 32 32 34 34 32 30 29 28 27 27 29 30 31 32 33 34 36 40 42 41 39 37 38 39 39 37 36 35 35 34 34 32 31 30 30 31 32 34 35 36 38 40 42 43 44 45 45 45 45 43 42 41 40 40 39 40 43
33 32 31 31 31 31 31 30 30 29 29 29 30 31 31 30 28 26 27 29 29 27 27 28 28 27 28 30 30 31 31 30 29 28 27 26 26 27 29 30 31 32 33 35 37 38 37 36 36 36 35 35 35 34 34 33 33 33 33 32 31 30 29 30 31 33 34 35 36 37 39 40 41 42 42 42 42 41 41 40 39 39 40 41 43
32 31 31 31 30 30 29 29 28 28 28 28 29 30 32 33 30 26 24 24 26 27 26 26 26 27 27 27 29 30 29 28 27 26 24 24 25 28 30 31 31 31 31 33 34 34 33 33 33 33 32 31 31 31 32 32 32 32 32 32 32 31 29 29 30 32 34 34 35 36 37 37 37 38 38 38 37 37 37 38 38 38 39 40 42
31 30 30 30 29 29 28 28 28 28 28 28 29 30 31 32 33 31 27 23 22 23 24 25 26 26 26 26 26 27 27 26 24 23 21 23 26 28 29 29 28 28 29 29 29 29 29 29 29 29 29 29 29 30 30 30 30 30 30 31 31 31 30 29 31 33 34 33 32 34 36 35 35 35 35 35 34 34 35 35 37 38 39 40 42
30 30 29 29 28 28 27 26 27 27 27 28 29 30 30 30 31 33 32 30 26 22 19 20 23 26 27 26 25 25 25 24 21 20 21 23 25 26 27 26 24 23 24 24 25 26 26 27 27 28 28 28 28 29 29 29 29 29 29 30 31 31 31 31 32 34 34 33 32 33 34 33 33 34 34 34 33 34 35 36 37 38 38 39 40
30 29 28 28 28 27 26 26 26 27 27 28 28 29 29 29 29 30 31 32 31 27 22 18 18 21 25 27 25 23 23 21 18 17 19 21 23 24 25 24 23 21 22 23 24 25 26 27 27 28 28 28 27 28 28 28 29 29 29 30 31 31 31 31 32 33 33 33 33 33 33 32 32 33 34 35 34 34 35 36 35 36 36 36 36
29 29 28 27 27 26 26 26 26 27 27 28 28 28 28 28 28 29 28 28 29 28 26 22 19 17 20 23 23 21 19 18 16 15 17 19 21 23 24 24 24 24 24 24 25 25 26 26 27 27 27 27 27 27 28 28 29 29 30 30 31 31 30 31 32 33 34 33 33 32 32 31 31 31 33 35 35 34 34 34 34 34 33 32 31
29 28 27 26 26 27 26 26 27 27 28 28 27 28 28 27 27 27 27 27 26 26 25 24 22 19 17 18 20 18 16 16 14 13 14 17 19 20 22 23 24 25 25 26 26 27 27 27 27 27 27 26 26 27 27 28 28 29 30 31 31 30 30 30 31 32 33 33 33 33 32 30 29 29 30 33 34 35 34 33 33 33 31 29 28
28 27 26 26 26 27 27 27 27 27 27 27 27 27 27 27 26 26 25 25 24 24 23 22 21 20 18 17 18 18 17 15 13 13 14 15 17 18 19 21 23 24 25 26 26 27 28 28 28 28 27 26 26 26 27 27 28 29 30 32 32 31 30 30 30 30 30 32 33 33 32 30 28 27 27 28 30 31 32 33 31 29 28 27 26
26 26 26 26 27 27 27 27 27 27 27 27 27 26 26 25 24 24 24 23 22 22 22 20 19 18 18 17 18 19 18 17 15 16 17 18 18 19 19 21 22 23 24 25 26 26 27 28 28 29 28 26 25 25 26 27 28 29 30 32 33 33 32 32 31 31 30 31 31 31 31 30 29 27 26 26 26 26 28 30 28 25 25 25 24
25 26 26 26 27 27 27 27 27 27 26 26 26 25 25 24 23 22 22 22 21 21 20 19 17 16 16 16 17 18 19 18 17 18 19 20 20 19 19 20 21 22 23 24 25 26 26 27 28 29 29 27 26 25 26 26 27 28 29 31 32 34 34 33 32 31 31 31 30 30 29 29 29 28 26 25 25 24 24 25 25 23 22 22 20
26 26 26 26 27 27 28 28 27 26 26 25 25 24 23 22 22 21 21 21 20 20 19 17 15 14 15 15 15 16 17 18 17 18 18 19 19 20 20 20 21 21 22 23 24 25 25 26 27 28 29 28 27 26 26 26 27 28 28 30 32 34 35 34 33 31 31 31 30 29 29 28 27 27 26 25 24 22 20 20 20 19 18 18 18
27 27 26 26 27 27 28 27 26 26 26 25 23 22 22 21 20 21 21 20 20 19 18 16 14 13 14 15 15 15 16 16 16 17 17 16 17 18 18 19 19 20 21 22 24 25 25 25 26 27 28 28 28 27 26 27 28 28 28 29 31 33 35 35 33 31 30 29 29 28 28 27 26 25 25 24 23 21 18 16 16 16 15 15 16
27 27 27 27 27 27 27 26 26 25 25 24 22 21 21 20 20 20 20 19 18 18 17 16 14 13 14 14 15 15 15 15 16 16 16 15 15 15 16 17 18 19 20 21 22 23 25 25 26 26 27 27 28 28 27 26 27 28 29 29 30 33 35 36 34 32 30 29 29 28 27 26 25 24 23 22 21 20 17 15 14 14 14 13 13
28 28 27 27 27 26 26 25 25 24 23 22 21 21 20 19 19 19 19 19 18 17 17 16 15 14 14 14 15 15 15 15 15 16 15 15 15 15 16 17 18 19 19 20 21 22 23 24 25 25 25 26 27 28 28 27 27 28 29 29 30 32 34 35 35 33 31 29 28 27 26 26 25 24 23 22 21 19 17 15 14 14 14 13 12
28 28 27 27 26 25 24 24 23 23 22 21 21 20 19 19 19 19 18 18 17 16 16 16 16 16 15 15 15 16 16 16 16 16 15 15 16 16 16 17 18 19 19 20 21 21 22 23 24 25 25 25 26 27 28 28 27 27 28 29 30 31 32 33 33 32 30 29 28 27 26 25 25 24 23 22 20 19 18 17 15 14 13 12 12
27 27 27 26 25 24 23 22 22 22 22 21 20 19 18 18 18 18 18 17 17 16 16 16 16 17 17 16 16 16 16 16 17 16 16 16 17 17 18 18 19 19 19 20 21 21 22 23 24 24 25 25 25 26 27 28 28 28 28 28 29 29 30 31 31 30 29 28 28 27 26 25 24 24 23 22 20 19 18 17 16 14 13 12 11
26 25 25 24 23 22 21 21 21 21 20 19 19 18 18 18 18 17 17 17 17 17 17 16 17 17 18 17 17 17 17 17 18 17 17 17 18 18 19 19 19 19 19 19 20 21 22 22 23 24 24 25 25 26 26 27 28 28 28 28 28 29 29 30 30 29 28 28 27 26 25 24 24 23 22 20 20 19 18 17 15 14 13 12 10
24 23 22 22 21 21 20 20 20 20 19 18 18 18 18 17 17 17 17 17 17 17 17 17 17 18 19 19 18 18 19 19 19 19 19 19 19 20 20 21 21 21 20 20 20 21 21 22 23 24 24 25 25 25 26 26 27 27 28 28 28 28 28 28 29 28 28 27 26 25 25 24 23 22 21 20 20 19 18 17 15 13 11 10 8
22 21 20 20 20 19 19 19 19 19 18 18 18 18 17 17 17 16 16 17 17 18 18 18 18 19 20 20 20 20 20 20 20 20 20 20 20 21 22 22 22 22 22 22 21 21 22 22 23 23 24 25 25 25 26 26 26 27 27 28 27 27 27 27 27 27 27 27 26 25 24 23 22 21 20 20 20 19 17 16 15 13 10 8 6
19 19 19 19 19 18 18 18 18 18 18 18 18 18 17 17 17 16 17 17 18 18 18 19 20 20 21 21 21 21 21 22 22 22 21 22 22 23 23 23 24 24 23 23 23 23 23 23 23 23 24 24 25 25 26 26 26 26 26 27 27 26 26 26 26 26 26 26 25 24 23 23 22 21 20 20 20 19 17 16 14 12 10 8 6
18 18 18 18 18 18 18 18 18 17 18 18 18 18 18 17 17 17 17 18 18 18 19 20 21 21 21 22 22 22 23 23 23 23 22 23 24 24 25 25 25 25 25 25 25 25 24 24 24 24 25 25 25 25 26 26 25 25 25 25 26 25 24 24 25 24 24 24 24 23 22 22 22 21 21 21 20 19 18 16 14 12 10 8 7
Wind_Direction
221 221 221 220 223 225 230 239 249 264 277 293 306 313 317 319 319 317 315 314 312 310 310 310 309 310 311 311 312 312 312 312 313 313 313 312 313 313 312 312 312 312 313 313 314 315 315 316 316 317 317 317 316 314 312 309 306 303 301 299 297 295 294 292 290 290 291 289 290 291 293 294 295 295 297 298 298 299 298 297 296 295 291 285 278
224 224 225 225 231 236 243 255 267 286 307 319 325 328 328 328 326 323 321 319 317 316 315 314 314 313 313 313 312 312 312 312 312 312 312 312 312 312 312 312 312 311 311 312 312 312 313 313 314 313 313 312 312 311 310 308 307 305 302 300 298 296 295 294 292 292 292 291 290 289 288 289 289 291 292 293 295 296 295 295 295 295 293 290 285
226 227 229 231 236 241 249 267 288 309 322 327 329 330 330 329 328 326 324 322 320 319 317 316 316 315 315 315 314 314 314 313 314 314 314 313 313 313 313 312 312 311 311 311 311 312 312 312 312 311 310 309 307 306 304 304 303 303 302 301 299 297 295 293 292 291 291 292 292 290 288 287 286 286 288 289 290 291 292 292 293 293 292 291 289
230 230 231 232 239 251 268 287 303 314 320 323 324 327 328 327 327 325 323 322 320 319 318 317 317 316 316 316 316 316 315 315 316 315 315 315 315 314 314 313 312 312 311 311 311 311 312 312 312 311 310 308 306 304 302 300 298 298 297 297 298 297 296 294 291 289 289 290 290 289 289 288 285 284 285 286 286 286 288 289 290 290 289 289 287
233 232 232 238 249 263 279 292 301 307 311 315 319 323 326 327 327 325 323 322 320 319 318 318 317 316 316 316 316 316 316 316 316 316 316 316 315 315 314 313 312 312 311 312 312 312 312 312 312 312 311 309 307 306 303 301 298 296 294 293 293 293 294 293 292 290 287 287 288 288 287 287 286 284 284 284 285 284 284 285 286 286 287 287 286
234 233 237 245 254 264 275 285 292 299 305 311 316 321 325 327 328 326 324 322 319 318 317 316 315 314 313 314 314 314 314 314 314 315 315 315 314 313 313 312 312 311 311 311 312 313 313 312 312 311 310 309 308 307 305 303 301 298 296 293 291 290 289 289 289 289 288 286 286 286 285 285 285 285 284 283 284 284 284 283 283 284 285 286 286
236 238 242 248 256 263 272 281 289 298 306 313 318 322 325 327 327 326 324 322 319 317 316 314 313 311 311 311 312 312 312 313 313 313 313 313 312 311 311 311 310 310 310 310 311 311 311 310 310 309 309 308 307 306 305 304 302 300 298 296 293 291 289 287 286 286 286 286 286 285 285 284 283 283 283 283 282 281 281 282 283 283 284 285 285
240 241 246 251 258 266 273 282 292 303 310 315 318 320 323 324 325 325 323 321 319 317 315 314 313 311 310 310 311 311 311 311 311 312 311 311 311 310 310 309 309 308 308 308 309 309 308 308 307 307 307 306 306 305 304 304 303 301 299 297 295 292 289 287 286 285 284 284 284 284 284 284 282 281 281 281 280 278 279 281 283 282 282 283 283
242 244 248 255 262 269 275 285 296 304 308 312 314 317 320 322 324 323 322 320 318 316 315 314 313 311 310 310 310 311 310 310 311 311 311 311 310 310 309 309 309 308 308 308 308 308 308 307 306 306 306 305 305 305 304 303 302 300 298 297 295 292 290 288 286 285 283 283 282 282 284 284 282 281 279 277 276 277 279 280 280 279 280 282 282
244 248 253 259 265 270 276 286 295 300 303 307 310 313 316 320 322 322 320 318 316 315 314 313 312 310 309 309 310 310 310 310 310 311 312 312 311 310 309 309 310 310 309 310 309 309 309 308 307 306 306 306 306 305 304 302 299 296 295 293 291 289 288 287 286 284 283 283 282 282 283 282 280 279 278 276 275 275 276 278 279 279 280 282 281
249 251 256 261 266 271 278 284 290 295 299 303 305 308 312 315 319 321 320 317 315 314 313 311 310 309 309 309 309 309 309 309 310 311 311 311 311 311 311 310 311 311 311 311 310 310 309 309 308 308 308 308 307 306 305 303 301 299 296 293 288 282 278 278 279 279 280 281 281 281 281 280 278 278 278 278 277 275 274 275 278 280 280 281 281
250 252 256 260 265 271 276 280 286 291 295 298 299 301 306 311 316 318 318 316 314 313 312 310 309 308 307 308 308 308 308 309 310 310 311 311 312 312 312 312 312 312 312 312 311 311 310 310 310 310 309 310 310 309 308 307 305 304 301 297 293 287 279 274 273 273 274 275 274 273 273 274 276 277 278 279 279 279 279 277 274 275 276 277 278
250 252 255 259 264 270 274 278 283 287 289 292 293 296 301 307 312 315 316 315 313 312 311 309 308 306 306 307 307 307 308 309 310 311 311 312 313 313 313 312 312 312 312 312 311 311 311 312 312 312 313 313 313 312 312 311 310 308 305 303 301 298 292 284 278 276 274 273 272 269 267 269 272 273 272 274 277 280 282 280 276 272 272 272 273
252 254 255 259 263 268 273 277 280 282 284 286 288 292 299 305 310 313 313 313 312 310 309 307 306 306 306 307 308 308 309 310 311 311 312 312 314 314 313 313 313 313 312 312 312 312 313 313 313 314 315 314 314 315 316 316 314 311 307 304 302 300 296 290 285 282 278 275 275 274 273 273 274 272 272 273 276 277 277 276 275 273 272 272 272
256 257 258 261 264 268 272 274 275 277 278 281 286 292 298 305 309 311 311 311 310 309 308 306 306 307 308 309 309 309 310 311 311 312 312 313 314 314 313 314 313 313 313 313 314 313 314 314 315 316 315 315 315 317 318 316 312 307 304 302 301 301 297 292 288 286 282 279 279 280 282 282 281 279 279 279 278 278 276 274 273 274 273 272 271
261 262 262 264 266 268 270 271 271 272 275 280 286 293 300 305 309 310 310 310 309 309 307 307 308 309 309 310 309 309 310 311 312 312 312 313 314 314 314 314 314 314 314 315 314 314 314 315 316 316 314 313 315 317 319 316 308 303 303 304 304 303 300 296 290 284 282 282 281 281 282 284 285 283 282 281 279 277 278 277 276 275 272 269 268
266 266 266 267 267 268 268 268 268 270 274 282 289 295 301 306 308 309 309 309 309 308 307 308 309 310 310 310 310 310 310 311 312 312 313 314 315 315 315 315 314 314 314 314 314 313 314 314 315 314 312 312 316 320 319 311 302 300 302 302 301 299 299 300 297 291 289 288 283 280 280 282 283 283 281 281 280 279 278 275 273 273 274 271 268
272 271 270 269 268 267 266 265 266 271 277 285 291 297 303 306 307 307 308 308 308 307 307 308 309 309 310 310 310 310 310 311 312 313 313 315 316 316 316 315 315 314 314 314 313 312 313 313 315 315 313 314 318 317 308 300 297 296 297 297 296 296 297 300 301 299 299 298 293 290 289 287 287 287 286 285 283 280 277 271 269 271 274 273 270
275 273 271 269 267 265 264 265 268 274 282 288 294 300 304 305 305 306 306 306 306 307 308 308 309 309 309 309 309 309 309 310 312 313 314 316 317 318 317 315 315 314 313 311 311 311 313 314 315 316 314 314 317 313 301 295 294 294 294 294 293 294 297 301 301 300 299 299 297 297 296 295 295 294 292 291 288 284 281 276 272 270 269 268 268
273 271 269 267 265 264 264 267 272 278 285 291 297 301 303 304 304 305 305 305 306 307 308 308 308 308 309 309 309 309 309 310 312 313 315 318 318 317 315 313 312 312 310 311 312 313 313 313 315 317 317 317 317 312 304 299 298 297 297 295 294 296 301 302 301 299 298 296 296 296 295 296 296 293 292 291 290 287 285 281 278 273 268 265 265
271 269 268 266 265 265 266 270 276 282 288 294 299 301 301 303 304 304 304 305 306 307 307 307 308 308 309 309 308 309 310 311 312 314 317 318 317 315 312 311 311 311 310 310 309 307 307 309 311 315 318 318 316 311 307 305 301 297 295 295 295 298 300 300 299 299 297 296 295 294 293 292 291 290 290 290 290 289 286 282 279 275 270 265 263
270 268 267 265 265 266 269 273 278 285 291 295 298 299 301 302 303 303 303 304 305 306 306 307 307 308 309 308 308 309 310 311 312 314 317 317 315 312 310 310 310 309 306 305 303 303 304 307 309 312 315 315 313 311 309 306 301 296 293 293 294 294 294 295 296 296 295 294 293 292 291 290 290 290 290 290 290 290 287 283 281 276 272 268 264
269 267 266 265 266 267 271 275 282 288 293 296 297 299 300 301 301 302 303 303 304 305 306 306 307 308 308 308 309 310 310 310 312 315 317 316 314 314 313 312 311 308 304 303 303 304 305 306 309 313 316 314 311 308 306 303 299 294 292 291 291 291 291 292 293 293 292 292 291 290 290 291 291 291 291 292 294 293 289 285 282 278 274 271 267
268 267 266 266 267 269 273 279 286 291 293 295 296 298 299 300 300 301 302 302 303 304 305 306 306 307 308 308 309 310 310 310 313 316 318 317 316 317 317 314 314 313 306 303 303 305 306 307 309 310 310 308 304 301 299 297 294 293 292 291 290 291 292 292 293 293 293 292 292 292 292 292 292 292 292 294 295 294 291 287 284 281 275 272 269
267 267 267 267 269 273 278 284 289 292 293 294 296 297 298 299 300 300 301 302 303 303 305 306 306 306 307 308 309 309 309 311 314 318 320 319 319 319 317 316 318 316 307 303 303 303 303 304 304 303 304 304 303 303 302 300 298 297 296 294 293 293 294 295 296 296 295 294 294 293 293 293 293 292 292 293 293 291 290 289 286 283 279 275 272
268 268 268 270 272 277 283 287 290 291 292 294 295 297 298 298 299 301 302 303 303 303 304 305 304 305 306 306 307 308 309 311 315 319 321 320 319 319 319 320 322 317 308 303 303 305 308 311 310 308 307 306 305 304 303 301 299 298 298 298 298 299 300 300 299 298 297 296 295 294 294 295 295 295 294 293 291 289 289 289 287 286 283 278 275
269 269 270 273 276 282 286 289 290 291 292 294 295 296 297 299 300 302 303 303 303 303 304 304 303 304 305 305 306 307 308 312 317 322 323 322 322 323 323 322 321 316 311 309 312 315 316 312 306 302 302 302 301 300 299 298 298 300 302 304 304 303 303 302 302 300 299 298 297 298 299 299 299 298 297 294 291 289 289 288 286 285 284 279 275
269 270 272 275 280 284 287 288 289 290 291 293 293 295 297 300 301 302 303 303 303 303 303 302 302 303 303 304 306 309 310 315 321 325 325 324 323 321 319 317 315 314 313 314 315 311 304 298 297 300 303 304 305 304 302 301 301 301 302 303 303 303 304 306 307 306 303 302 302 301 302 301 300 298 296 293 290 289 289 287 284 283 283 279 274
270 271 273 278 282 284 285 286 288 290 290 291 293 295 298 301 301 301 302 301 300 301 301 301 303 305 306 308 311 312 312 315 321 322 321 319 317 315 313 313 314 313 313 312 306 299 297 300 305 309 310 310 310 310 307 306 306 305 305 305 305 306 308 311 312 310 308 307 304 303 302 302 300 298 295 291 289 290 289 286 283 284 283 279 275
269 271 275 279 282 282 283 285 287 288 289 291 294 297 299 300 301 302 303 302 301 301 302 303 306 307 307 307 308 306 306 311 316 316 315 316 317 315 313 311 308 307 306 304 301 300 304 309 312 312 312 312 313 313 312 312 312 310 308 307 307 309 313 314 313 313 313 310 307 306 304 302 300 299 296 292 290 290 289 285 282 281 280 277 275
269 272 276 279 280 281 282 284 285 286 288 292 296 299 301 300 299 300 301 301 301 300 300 300 301 301 299 300 300 299 302 307 311 311 315 320 319 314 309 307 307 306 305 305 305 308 311 313 313 314 314 313 314 315 316 315 314 312 311 309 308 311 315 315 315 317 317 315 312 311 309 306 303 300 297 294 291 289 287 286 283 280 278 276 275
271 274 277 277 278 280 281 282 284 286 289 293 296 299 300 301 300 299 296 296 297 297 297 296 295 295 295 295 297 299 303 307 310 314 319 319 313 309 310 314 316 315 312 311 312 313 314 315 315 316 317 316 317 317 317 317 316 315 315 314 313 314 315 315 318 320 320 317 315 314 312 310 306 303 298 294 291 288 286 286 284 282 280 279 279
273 275 276 277 278 279 280 281 284 287 290 293 295 297 298 299 301 301 300 297 295 294 295 296 295 294 293 293 295 299 304 308 312 317 318 314 312 316 321 326 326 321 318 317 316 315 317 318 320 322 324 323 323 322 320 319 318 318 318 318 317 317 317 319 322 322 319 318 317 315 314 312 309 306 302 297 293 288 287 286 286 286 286 285 287
274 275 276 277 277 278 279 280 283 287 290 292 294 295 296 297 299 301 303 303 300 297 294 293 294 295 295 295 297 301 306 310 314 316 316 316 321 326 329 330 330 325 322 324 325 325 327 328 329 331 330 329 327 326 325 324 323 322 322 321 320 321 323 324 324 323 321 321 320 318 316 315 312 308 305 302 298 293 290 289 289 289 290 291 294
275 276 276 276 277 277 279 281 283 286 289 290 292 293 295 296 298 300 302 303 303 304 303 298 293 292 294 296 299 304 308 312 314 316 319 323 327 330 331 333 336 337 338 341 341 340 340 339 338 337 335 333 332 332 330 330 330 329 328 327 326 327 327 326 326 324 323 321 320 319 318 316 313 309 305 302 298 294 291 291 291 291 292 294 296
276 275 275 276 277 278 280 282 284 286 288 289 291 292 293 295 297 298 299 300 301 304 306 305 301 296 292 294 299 304 308 310 313 319 325 327 329 332 336 341 347 350 353 354 352 350 349 346 341 339 337 336 335 335 335 336 336 335 334 332 330 329 329 330 329 328 326 323 320 320 319 317 314 312 308 302 298 295 293 292 291 291 292 293 294
274 274 275 276 277 279 281 283 284 285 287 288 289 290 291 294 295 296 297 299 300 302 304 304 304 302 297 293 296 301 305 306 312 322 328 327 328 333 339 346 353 357 359 0 360 359 357 353 347 342 340 339 338 338 338 338 339 340 339 336 333 331 331 332 331 328 328 326 324 322 321 318 316 315 312 307 301 296 293 291 290 290 292 293 291
272 274 275 275 276 278 280 281 282 283 285 286 287 289 290 292 294 294 295 296 298 300 301 302 303 304 303 300 300 303 306 307 312 323 329 329 330 335 342 349 355 357 358 360 1 1 359 358 353 348 343 341 340 340 340 340 341 344 343 341 338 336 334 333 331 329 329 328 326 324 323 321 320 320 318 313 306 298 293 290 288 288 293 294 290
272 273 274 274 276 277 279 280 281 282 283 284 285 286 288 290 291 292 292 294 296 297 298 300 301 303 304 304 303 305 310 315 323 330 333 334 337 343 348 352 354 356 356 356 358 359 359 359 357 354 349 345 343 343 344 344 344 346 346 345 343 341 339 337 335 333 333 331 327 325 324 324 324 322 320 318 315 307 299 293 289 287 291 293 291
272 273 273 274 276 277 278 279 280 280 281 282 283 285 287 288 288 289 290 292 294 294 295 297 298 298 299 302 304 307 313 321 328 332 332 334 338 344 349 352 353 355 355 354 355 357 358 359 359 357 354 351 348 348 349 348 347 347 347 348 346 345 343 341 339 337 336 333 330 327 326 325 325 324 321 319 319 316 307 299 293 289 288 289 289
273 273 274 274 275 276 277 278 280 279 279 280 282 283 284 285 286 287 288 289 290 291 292 293 294 293 294 297 301 306 311 318 323 326 328 331 335 340 345 349 352 353 353 353 353 354 357 359 360 357 355 353 353 355 355 354 351 349 349 349 349 348 346 344 342 340 337 335 333 331 329 327 326 325 324 322 320 318 312 305 301 295 290 288 287
273 273 273 273 273 274 276 277 278 277 278 279 280 281 282 282 283 285 286 287 288 289 289 289 288 286 287 291 295 299 304 310 314 318 321 326 331 335 339 343 347 350 351 352 352 352 354 357 359 358 356 354 353 355 359 359 356 353 352 352 351 350 349 347 344 342 340 338 336 334 332 330 328 327 326 325 324 321 318 315 313 308 300 292 287
273 273 272 272 272 273 275 275 275 275 276 278 279 279 279 281 282 283 284 285 285 285 286 286 284 280 280 284 288 292 297 302 306 309 314 320 325 329 332 336 340 344 347 348 350 350 351 353 356 358 358 356 354 354 357 1 1 358 355 355 355 353 351 349 347 345 342 340 338 337 336 335 333 332 331 330 329 327 323 321 321 320 315 306 296
273 273 272 272 272 273 273 273 273 273 274 275 276 276 278 279 280 282 282 282 282 282 283 283 282 279 278 279 282 287 292 296 299 303 308 314 319 323 326 329 333 336 340 344 346 347 347 348 351 354 356 357 356 355 355 358 1 1 358 357 358 357 355 352 350 348 345 343 341 341 341 341 340 340 339 339 337 335 333 333 333 331 327 321 312
272 272 272 272 272 271 271 271 271 271 271 272 272 274 276 278 279 280 280 280 280 280 280 280 281 280 279 278 280 284 288 292 295 299 304 309 314 319 321 324 327 331 335 338 340 342 343 344 346 349 351 353 355 356 355 356 359 1 1 360 359 359 357 355 353 351 350 348 347 347 347 347 347 346 346 345 344 343 342 341 340 337 333 328 321
272 271 271 271 270 269 269 267 267 267 268 270 271 272 274 276 278 278 279 279 279 279 278 278 278 279 280 280 281 284 287 290 293 296 301 306 310 314 316 319 322 326 329 333 335 336 338 340 341 344 347 349 351 353 354 354 355 358 360 0 360 360 359 358 357 356 355 354 353 352 352 352 352 352 350 349 349 350 349 346 344 340 335 330 323
271 270 269 268 267 266 265 264 264 265 267 268 270 272 272 274 275 276 277 278 278 278 278 277 277 278 279 280 282 284 287 289 292 295 300 304 308 310 312 314 316 319 323 327 329 330 332 335 337 339 342 345 347 349 351 353 353 354 356 358 359 0 0 360 359 360 360 358 357 356 356 356 356 356 355 355 356 356 355 352 351 347 341 335 326
271 269 267 266 265 264 262 261 261 263 266 268 269 270 271 272 273 274 276 276 277 278 278 278 278 279 279 280 282 285 286 289 291 295 298 302 305 306 307 309 311 314 316 319 322 324 326 328 331 333 336 339 342 345 347 349 350 351 352 354 356 358 360 360 360 0 1 2 1 0 0 360 359 359 0 1 2 2 360 357 356 354 349 344 337
271 269 266 265 263 262 261 261 261 263 265 267 268 269 270 271 272 273 275 276 277 278 279 279 279 279 280 281 283 284 286 288 290 293 296 299 301 302 304 305 307 309 311 313 316 318 320 322 325 328 330 333 336 339 342 345 347 348 349 350 352 355 357 359 359 0 2 4 5 5 5 5 4 4 7 8 7 7 5 3 2 359 354 349 343
271 268 265 263 262 261 261 261 262 264 265 266 267 268 269 270 272 273 275 276 277 279 280 281 281 281 282 283 284 285 286 288 289 291 294 297 298 298 300 302 303 305 307 309 311 313 315 317 319 321 324 327 329 332 336 339 342 344 345 346 348 351 353 356 358 359 2 4 6 8 10 11 10 10 13 14 13 12 11 8 6 4 359 354 349
268 265 263 262 262 263 263 264 264 265 266 266 268 269 269 270 272 273 273 275 278 279 280 281 281 283 284 285 286 287 288 289 290 292 294 295 296 297 298 299 300 302 303 304 307 309 311 312 314 316 318 321 324 326 329 332 335 339 341 343 344 345 349 353 356 358 1 4 5 6 10 14 15 15 17 18 17 16 15 12 10 9 6 3 0
Height
1538 1538 1539 1539 1539 1539 1540 1540 1540 1540 1541 1541 1541 1541 1541 1541 1540 1540 1539 1539 1538 1538 1537 1536 1535 1534 1533 1532 1531 1530 1529 1528 1526 1525 1525 1524 1523 1522 1520 1519 1518 1517 1516 1515 1514 1512 1510 1509 1507 1506 1504 1502 1500 1499 1498 1498 1497 1495 1495 1492 1490 1490 1487 1484 1478 1468 1467 1472 1471 1469 1469 1468 1465 1464 1463 1462 1462 1464 1464 1464 1464 1463 1462 1462 1462
1537 1537 1537 1538 1538 1538 1538 1539 1539 1539 1539 1539 1539 1539 1539 1539 1538 1538 1537 1537 1536 1535 1534 1534 1532 1531 1530 1529 1528 1527 1526 1525 1524 1522 1521 1520 1519 1518 1517 1515 1514 1513 1512 1511 1510 1509 1507 1506 1505 1503 1501 1499 1497 1495 1492 1491 1490 1488 1488 1487 1485 1485 1483 1480 1475 1467 1460 1463 1466 1464 1465 1465 1461 1460 1460 1458 1457 1457 1457 1457 1459 1459 1458 1457 1457
1536 1536 1536 1536 1536 1537 1537 1537 1538 1538 1538 1537 1537 1537 1537 1537 1536 1536 1535 1534 1533 1533 1532 1531 1530 1529 1527 1526 1525 1524 1523 1521 1520 1519 1517 1516 1515 1514 1513 1511 1510 1509 1507 1506 1505 1504 1502 1501 1500 1498 1496 1495 1494 1492 1490 1487 1486 1483 1481 1481 1479 1477 1478 1476 1471 1465 1457 1455 1458 1458 1458 1460 1458 1456 1455 1454 1453 1452 1451 1451 1452 1453 1453 1453 1452
1534 1534 1535 1535 1535 1535 1535 1536 1536 1536 1536 1536 1536 1536 1535 1535 1534 1533 1533 1532 1531 1530 1529 1527 1526 1525 1524 1523 1521 1520 1519 1517 1516 1515 1513 1512 1510 1509 1508 1507 1506 1504 1502 1501 1499 1498 1496 1495 1494 1492 1490 1489 1488 1487 1486 1484 1482 1480 1477 1475 1473 1470 1470 1469 1467 1463 1456 1450 1450 1452 1452 1452 1453 1452 1451 1450 1448 1447 1446 1445 1445 1446 1447 1448 1447
1532 1533 1533 1533 1533 1534 1534 1534 1534 1535 1535 1535 1534 1534 1533 1532 1532 1531 1530 1529 1528 1527 1525 1524 1523 1522 1520 1519 1518 1516 1515 1513 1512 1510 1509 1508 1506 1504 1503 1501 1500 1499 1497 1495 1494 1492 1490 1488 1487 1486 1483 1481 1480 1479 1478 1478 1476 1475 1473 1471 1469 1466 1463 1462 1460 1458 1454 1447 1443 1445 1446 1446 1445 1447 1448 1446 1443 1442 1441 1440 1440 1439 1440 1441 1442
1530 1531 1531 1531 1532 1532 1532 1533 1533 1533 1533 1533 1532 1531 1531 1530 1529 1528 1527 1526 1525 1524 1523 1522 1521 1519 1518 1516 1515 1513 1512 1510 1509 1507 1505 1504 1502 1500 1499 1497 1495 1494 1492 1490 1488 1486 1484 1482 1481 1480 1477 1475 1473 1471 1470 1469 1468 1467 1466 1464 1463 1461 1458 1456 1454 1452 1449 1444 1439 1438 1439 1440 1439 1439 1442 1443 1440 1437 1435 1434 1433 1434 1434 1434 1435
1529 1529 1529 1529 1530 1530 1531 1531 1531 1531 1531 1530 1529 1529 1528 1527 1527 1526 1525 1524 1523 1522 1521 1520 1518 1517 1515 1514 1512 1511 1509 1507 1505 1504 1502 1500 1498 1496 1495 1493 1491 1489 1488 1486 1484 1482 1480 1478 1476 1474 1472 1470 1467 1465 1463 1461 1460 1458 1458 1457 1456 1454 1452 1450 1449 1446 1443 1439 1435 1433 1432 1434 1434 1433 1435 1437 1436 1434 1432 1429 1427 1427 1429 1428 1428
1526 1527 1527 1527 1528 1528 1528 1529 1528 1528 1528 1527 1527 1526 1526 1525 1524 1523 1522 1521 1520 1519 1518 1517 1515 1514 1512 1511 1509 1508 1506 1504 1502 1500 1498 1496 1495 1492 1490 1489 1487 1485 1483 1482 1480 1478 1476 1474 1472 1469 1467 1465 1462 1460 1458 1456 1453 1451 1450 1449 1449 1447 1446 1444 1442 1441 1439 1435 1431 1428 1427 1427 1428 1428 1429 1431 1430 1428 1428 1427 1423 1421 1422 1422 1421
1524 1525 1525 1525 1526 1525 1526 1526 1526 1526 1525 1525 1525 1524 1523 1522 1521 1520 1519 1518 1517 1515 1514 1513 1511 1510 1509 1507 1506 1504 1502 1501 1499 1497 1494 1492 1490 1488 1486 1484 1482 1480 1479 1477 1475 1473 1471 1469 1467 1464 1462 1460 1457 1455 1453 1451 1449 1446 1444 1443 1443 1441 1439 1438 1436 1435 1434 1431 1427 1425 1423 1422 1422 1423 1423 1424 1424 1423 1423 1423 1420 1417 1417 1415 1414
1522 1523 1523 1523 1523 1523 1523 1523 1523 1523 1523 1522 1522 1521 1520 1519 1518 1518 1516 1515 1514 1512 1511 1509 1508 1506 1505 1503 1502 1500 1499 1497 1495 1493 1491 1488 1486 1484 1481 1479 1477 1475 1472 1471 1469 1467 1465 1463 1460 1458 1456 1454 1452 1450 1447 1446 1444 1442 1440 1439 1438 1437 1434 1433 1432 1431 1429 1427 1424 1421 1419 1415 1415 1418 1417 1417 1418 1419 1418 1418 1415 1413 1413 1410 1408
1520 1520 1520 1520 1520 1520 1520 1521 1521 1521 1520 1519 1519 1518 1517 1517 1516 1515 1513 1512 1511 1509 1508 1506 1504 1503 1501 1500 1498 1497 1495 1493 1491 1489 1487 1484 1482 1479 1477 1474 1472 1470 1467 1465 1462 1460 1458 1456 1453 1451 1449 1447 1445 1443 1441 1440 1438 1437 1435 1434 1433 1432 1431 1429 1428 1427 1426 1423 1420 1418 1414 1409 1408 1411 1412 1412 1413 1414 1414 1414 1413 1411 1409 1407 1404
1517 1517 1517 1517 1517 1518 1518 1518 1518 1518 1517 1516 1516 1515 1515 1514 1513 1512 1511 1509 1508 1506 1505 1503 1501 1499 1498 1496 1495 1493 1491 1489 1487 1485 1483 1481 1478 1475 1472 1470 1467 1465 1462 1460 1457 1454 1451 1449 1447 1444 1442 1440 1438 1435 1434 1432 1431 1430 1429 1427 1426 1426 1426 1425 1423 1421 1420 1418 1415 1411 1409 1406 1404 1406 1409 1409 1409 1410 1410 1409 1409 1408 1406 1404 1402
1514 1514 1515 1515 1514 1515 1515 1515 1515 1515 1514 1514 1513 1512 1512 1511 1510 1509 1508 1506 1504 1503 1501 1499 1498 1496 1495 1493 1491 1489 1487 1485 1483 1481 1478 1476 1474 1471 1468 1465 1463 1461 1458 1455 1452 1449 1446 1443 1440 1437 1435 1433 1431 1429 1427 1426 1424 1423 1422 1420 1419 1419 1419 1419 1418 1417 1415 1413 1409 1403 1401 1402 1401 1400 1403 1406 1405 1405 1405 1404 1404 1404 1402 1400 1398
1511 1512 1512 1512 1512 1512 1512 1512 1512 1511 1511 1511 1510 1509 1509 1508 1507 1506 1504 1503 1501 1499 1498 1496 1495 1493 1491 1489 1487 1485 1483 1481 1479 1477 1474 1471 1469 1466 1463 1461 1459 1456 1453 1450 1447 1443 1440 1437 1434 1431 1429 1428 1426 1424 1422 1420 1418 1416 1415 1415 1414 1414 1414 1413 1412 1411 1410 1408 1404 1398 1395 1398 1397 1394 1396 1400 1400 1400 1400 1400 1399 1399 1397 1396 1394
1509 1509 1509 1509 1509 1509 1509 1509 1509 1508 1508 1507 1507 1506 1505 1504 1503 1502 1500 1499 1497 1496 1494 1492 1491 1489 1487 1485 1482 1480 1478 1477 1474 1472 1469 1467 1464 1461 1459 1456 1454 1451 1448 1445 1442 1438 1435 1432 1429 1427 1424 1422 1421 1420 1419 1416 1414 1412 1410 1410 1410 1410 1409 1408 1407 1406 1404 1403 1400 1395 1392 1393 1393 1391 1390 1393 1394 1394 1395 1395 1394 1393 1392 1390 1388
1505 1505 1506 1506 1506 1506 1506 1505 1505 1505 1505 1504 1504 1503 1502 1501 1499 1498 1496 1495 1493 1492 1490 1488 1486 1484 1482 1480 1478 1476 1474 1472 1470 1468 1465 1463 1460 1457 1454 1451 1449 1446 1443 1440 1437 1434 1431 1428 1425 1423 1420 1418 1417 1417 1416 1413 1410 1408 1407 1406 1405 1405 1404 1403 1403 1401 1400 1398 1396 1393 1390 1389 1390 1388 1387 1388 1389 1390 1391 1390 1388 1387 1385 1382 1380
1502 1502 1502 1502 1502 1502 1502 1502 1502 1502 1501 1501 1500 1499 1498 1497 1495 1494 1492 1490 1489 1487 1486 1484 1482 1480 1478 1476 1473 1471 1470 1468 1466 1463 1461 1458 1456 1453 1450 1447 1444 1441 1438 1436 1432 1429 1426 1424 1422 1419 1416 1414 1413 1413 1412 1411 1408 1406 1404 1402 1401 1400 1398 1398 1397 1396 1395 1394 1391 1389 1386 1385 1385 1384 1383 1383 1384 1386 1386 1383 1380 1381 1380 1377 1373
1498 1498 1499 1499 1499 1499 1499 1499 1499 1498 1498 1497 1496 1495 1494 1493 1491 1490 1488 1486 1485 1483 1482 1480 1478 1476 1474 1472 1469 1467 1465 1463 1462 1459 1457 1455 1452 1449 1446 1442 1439 1436 1433 1430 1427 1424 1422 1421 1420 1417 1413 1411 1410 1410 1409 1409 1406 1403 1401 1399 1397 1394 1393 1392 1391 1389 1389 1387 1385 1383 1381 1380 1379 1378 1378 1377 1378 1380 1380 1376 1374 1376 1375 1372 1369
1495 1495 1495 1495 1496 1496 1495 1495 1495 1495 1494 1493 1492 1491 1490 1489 1487 1486 1484 1482 1481 1479 1478 1475 1474 1472 1470 1468 1465 1463 1461 1459 1457 1455 1453 1451 1448 1445 1441 1438 1434 1432 1428 1425 1422 1420 1418 1416 1416 1415 1411 1409 1408 1407 1406 1406 1403 1400 1398 1395 1392 1389 1389 1388 1386 1383 1382 1380 1377 1376 1374 1374 1373 1372 1371 1371 1371 1373 1374 1371 1370 1371 1369 1366 1364
1492 1492 1492 1492 1492 1492 1492 1492 1491 1491 1491 1489 1488 1487 1486 1485 1483 1482 1480 1478 1477 1475 1474 1471 1469 1467 1466 1463 1461 1459 1457 1455 1453 1451 1449 1447 1444 1441 1438 1434 1430 1427 1424 1420 1417 1414 1412 1411 1411 1411 1409 1407 1405 1404 1402 1402 1399 1396 1394 1391 1388 1385 1384 1383 1380 1378 1376 1374 1372 1370 1368 1368 1368 1366 1365 1364 1364 1365 1366 1365 1364 1364 1363 1360 1358
1489 1489 1489 1489 1489 1489 1488 1488 1488 1487 1487 1486 1485 1483 1482 1481 1479 1477 1476 1474 1473 1471 1469 1467 1465 1463 1461 1459 1457 1455 1453 1450 1448 1447 1445 1443 1441 1438 1434 1431 1427 1423 1419 1416 1413 1410 1408 1407 1406 1406 1405 1403 1401 1400 1398 1397 1396 1394 1391 1388 1385 1382 1380 1378 1376 1374 1372 1369 1368 1366 1364 1363 1362 1361 1359 1358 1357 1358 1358 1357 1357 1357 1357 1355 1352
1485 1485 1485 1485 1485 1485 1485 1485 1484 1484 1483 1482 1481 1480 1478 1477 1475 1474 1472 1470 1468 1466 1464 1462 1460 1458 1456 1454 1452 1450 1448 1446 1444 1443 1441 1439 1437 1434 1431 1428 1425 1421 1416 1412 1410 1408 1405 1404 1402 1401 1400 1398 1397 1395 1394 1393 1392 1389 1387 1384 1382 1380 1377 1374 1372 1370 1368 1365 1363 1361 1359 1358 1357 1355 1354 1352 1351 1351 1350 1349 1349 1349 1349 1348 1346
1481 1481 1482 1482 1482 1482 1482 1481 1481 1480 1479 1478 1477 1475 1474 1473 1471 1470 1468 1466 1464 1462 1460 1458 1455 1453 1451 1449 1447 1446 1444 1442 1440 1439 1437 1435 1433 1430 1427 1424 1422 1419 1414 1409 1406 1404 1401 1400 1398 1396 1395 1393 1392 1391 1389 1388 1386 1384 1381 1380 1378 1376 1373 1370 1368 1366 1363 1360 1358 1355 1353 1353 1351 1349 1347 1346 1345 1344 1343 1341 1341 1341 1341 1340 1339
1478 1478 1478 1478 1478 1478 1478 1477 1477 1476 1475 1473 1472 1471 1470 1469 1467 1466 1464 1462 1460 1458 1456 1453 1451 1448 1446 1444 1443 1441 1439 1437 1435 1434 1433 1430 1427 1425 1422 1419 1417 1415 1411 1407 1403 1400 1398 1395 1394 1392 1391 1390 1388 1387 1385 1383 1381 1378 1376 1375 1373 1371 1368 1365 1363 1360 1357 1354 1351 1348 1346 1346 1345 1342 1341 1340 1338 1337 1335 1334 1333 1333 1332 1331 1331
1474 1474 1474 1474 1474 1474 1474 1473 1472 1471 1470 1469 1468 1467 1466 1465 1463 1462 1460 1458 1456 1454 1451 1449 1447 1444 1442 1439 1438 1436 1434 1432 1431 1430 1428 1425 1423 1420 1417 1415 1413 1411 1408 1404 1401 1398 1395 1393 1391 1389 1387 1385 1383 1381 1378 1376 1375 1373 1371 1369 1367 1365 1363 1360 1357 1354 1351 1347 1344 1341 1338 1338 1338 1335 1334 1333 1331 1329 1328 1326 1325 1325 1324 1323 1323
1470 1471 1471 1470 1470 1470 1469 1469 1468 1467 1466 1465 1463 1463 1462 1460 1459 1457 1456 1454 1452 1449 1447 1445 1443 1440 1438 1436 1433 1431 1429 1428 1426 1426 1424 1421 1418 1415 1412 1410 1408 1406 1404 1401 1397 1395 1392 1389 1386 1384 1381 1380 1378 1375 1373 1370 1369 1367 1365 1363 1361 1359 1356 1354 1351 1348 1344 1340 1337 1334 1332 1331 1330 1328 1327 1326 1324 1322 1322 1321 1318 1316 1316 1316 1315
1466 1467 1467 1466 1466 1466 1465 1464 1463 1462 1462 1460 1459 1459 1457 1456 1454 1453 1451 1450 1448 1445 1443 1441 1439 1436 1434 1431 1429 1427 1425 1423 1422 1421 1419 1416 1413 1410 1407 1405 1403 1401 1399 1395 1392 1390 1387 1384 1381 1379 1376 1374 1372 1370 1367 1365 1363 1361 1359 1357 1354 1352 1350 1348 1345 1342 1338 1335 1331 1328 1326 1324 1323 1321 1321 1320 1317 1315 1316 1315 1312 1309 1309 1310 1308
1462 1463 1462 1462 1462 1461 1460 1460 1459 1458 1457 1456 1455 1455 1453 1452 1450 1449 1448 1446 1443 1441 1439 1437 1435 1433 1430 1428 1425 1423 1420 1419 1418 1416 1414 1412 1409 1407 1404 1402 1400 1397 1395 1392 1389 1386 1383 1379 1376 1374 1371 1368 1365 1363 1361 1359 1357 1355 1353 1351 1349 1347 1345 1343 1340 1337 1334 1330 1327 1324 1321 1319 1318 1316 1315 1313 1310 1309 1310 1309 1306 1303 1303 1304 1302
1458 1458 1458 1458 1458 1457 1456 1455 1454 1454 1453 1452 1451 1450 1449 1448 1446 1445 1444 1443 1440 1438 1436 1433 1432 1429 1426 1424 1421 1418 1416 1415 1415 1414 1412 1410 1408 1406 1403 1400 1398 1395 1393 1390 1386 1381 1377 1374 1371 1368 1365 1362 1360 1358 1356 1354 1351 1349 1348 1346 1344 1342 1340 1338 1335 1332 1330 1327 1324 1320 1317 1315 1312 1310 1308 1306 1304 1303 1303 1302 1300 1298 1298 1298 1296
1454 1454 1453 1454 1453 1452 1452 1451 1450 1449 1448 1448 1447 1446 1445 1444 1442 1441 1439 1438 1436 1435 1432 1429 1428 1425 1423 1421 1419 1417 1414 1413 1413 1411 1409 1407 1406 1404 1401 1398 1396 1392 1389 1385 1381 1376 1372 1369 1367 1364 1361 1358 1356 1353 1351 1349 1347 1344 1343 1341 1340 1337 1335 1333 1330 1328 1325 1323 1320 1316 1313 1310 1307 1305 1303 1300 1298 1297 1297 1296 1295 1294 1293 1292 1290
1449 1449 1449 1449 1448 1448 1447 1446 1446 1445 1444 1443 1442 1441 1440 1439 1439 1438 1436 1434 1432 1431 1430 1427 1426 1424 1421 1419 1417 1415 1413 1412 1410 1408 1406 1404 1402 1400 1398 1395 1391 1388 1384 1379 1375 1372 1369 1366 1363 1361 1359 1356 1353 1350 1348 1346 1344 1341 1339 1337 1335 1333 1330 1328 1326 1324 1321 1318 1315 1312 1309 1306 1303 1301 1299 1296 1294 1293 1291 1290 1290 1289 1287 1286 1284
1445 1445 1445 1444 1443 1443 1443 1442 1441 1440 1440 1439 1438 1436 1434 1433 1433 1434 1434 1432 1429 1428 1426 1425 1423 1421 1419 1417 1414 1412 1411 1409 1407 1405 1403 1401 1399 1396 1393 1390 1387 1383 1379 1375 1372 1369 1366 1363 1360 1358 1356 1353 1351 1348 1346 1343 1341 1339 1336 1333 1331 1329 1327 1324 1322 1319 1316 1313 1311 1307 1305 1302 1300 1297 1295 1292 1290 1288 1286 1285 1284 1283 1281 1280 1278
1440 1440 1440 1439 1438 1438 1438 1437 1436 1436 1435 1434 1433 1432 1431 1429 1427 1427 1428 1428 1427 1425 1423 1422 1420 1417 1416 1415 1412 1410 1408 1406 1404 1402 1400 1398 1395 1392 1389 1387 1383 1379 1375 1372 1370 1367 1364 1361 1359 1356 1354 1351 1348 1346 1343 1341 1338 1335 1333 1330 1327 1324 1322 1320 1317 1315 1312 1310 1307 1304 1301 1298 1296 1293 1290 1288 1286 1285 1282 1280 1279 1277 1276 1275 1272
1435 1435 1435 1434 1434 1433 1433 1432 1432 1431 1430 1430 1428 1427 1426 1425 1423 1421 1420 1420 1421 1421 1421 1420 1417 1414 1412 1411 1410 1408 1405 1403 1402 1400 1397 1394 1391 1389 1386 1384 1381 1378 1374 1370 1367 1364 1361 1359 1356 1354 1351 1349 1346 1343 1340 1337 1335 1332 1329 1326 1323 1320 1318 1315 1313 1310 1307 1305 1302 1300 1297 1294 1292 1289 1286 1284 1282 1281 1278 1276 1274 1273 1271 1269 1267
1430 1430 1430 1430 1429 1429 1428 1428 1427 1426 1426 1425 1424 1423 1422 1420 1419 1418 1416 1414 1414 1414 1416 1416 1415 1413 1409 1407 1406 1405 1402 1400 1399 1397 1394 1391 1389 1386 1384 1381 1379 1376 1372 1368 1364 1361 1359 1356 1353 1351 1348 1346 1343 1341 1338 1335 1332 1329 1325 1322 1319 1316 1314 1311 1309 1306 1303 1301 1298 1295 1293 1290 1288 1285 1283 1280 1278 1276 1274 1272 1271 1269 1267 1266 1263
1426 1426 1425 1425 1425 1424 1423 1423 1422 1422 1421 1420 1419 1418 1417 1416 1415 1413 1412 1411 1410 1409 1410 1410 1411 1410 1408 1405 1403 1402 1400 1398 1396 1394 1392 1390 1387 1384 1381 1378 1375 1372 1369 1366 1363 1360 1357 1355 1352 1349 1347 1344 1341 1338 1335 1332 1329 1326 1323 1320 1317 1314 1311 1308 1305 1303 1300 1297 1294 1291 1289 1286 1284 1281 1279 1276 1274 1272 1270 1268 1267 1265 1263 1262 1260
1422 1421 1421 1421 1420 1419 1419 1418 1417 1417 1416 1415 1414 1413 1412 1412 1411 1409 1408 1408 1407 1406 1406 1406 1405 1406 1405 1403 1401 1399 1398 1396 1394 1392 1390 1388 1386 1383 1380 1376 1373 1370 1367 1365 1362 1359 1356 1354 1351 1348 1345 1342 1339 1336 1333 1330 1327 1324 1322 1319 1315 1312 1309 1306 1303 1301 1297 1294 1291 1288 1286 1283 1280 1278 1276 1273 1270 1268 1266 1264 1263 1261 1260 1258 1257
1417 1417 1417 1417 1416 1415 1414 1414 1413 1412 1411 1410 1410 1409 1408 1407 1406 1405 1405 1404 1403 1403 1403 1402 1401 1401 1400 1399 1398 1396 1395 1394 1392 1390 1388 1386 1384 1381 1378 1374 1371 1368 1365 1363 1361 1358 1355 1352 1349 1347 1344 1341 1338 1335 1332 1329 1326 1323 1320 1316 1313 1310 1307 1304 1301 1298 1295 1292 1288 1285 1283 1280 1277 1274 1272 1269 1267 1264 1262 1261 1259 1258 1256 1254 1253
1413 1413 1413 1412 1412 1411 1410 1410 1409 1408 1408 1407 1406 1405 1404 1403 1403 1402 1401 1400 1400 1400 1399 1399 1398 1397 1396 1396 1394 1392 1391 1390 1388 1386 1385 1383 1381 1378 1375 1372 1370 1367 1365 1362 1360 1357 1354 1351 1348 1345 1342 1339 1336 1334 1330 1327 1324 1321 1318 1315 1311 1308 1305 1301 1298 1295 1292 1289 1286 1283 1280 1277 1274 1271 1269 1266 1263 1261 1259 1257 1256 1254 1252 1251 1249
1409 1409 1409 1408 1408 1407 1406 1406 1406 1405 1404 1403 1402 1401 1400 1400 1399 1398 1398 1397 1397 1397 1396 1396 1395 1394 1393 1392 1391 1389 1388 1386 1385 1383 1382 1380 1378 1376 1373 1371 1368 1366 1363 1361 1359 1356 1353 1351 1348 1345 1342 1339 1336 1332 1329 1326 1323 1320 1317 1314 1310 1307 1304 1300 1297 1293 1290 1286 1283 1280 1277 1274 1271 1268 1265 1263 1260 1258 1255 1253 1252 1251 1249 1248 1246
1405 1405 1404 1404 1404 1403 1402 1402 1402 1401 1400 1399 1398 1397 1397 1396 1395 1395 1394 1394 1394 1394 1393 1393 1392 1392 1391 1390 1389 1387 1386 1384 1383 1382 1380 1378 1376 1374 1371 1369 1367 1365 1362 1360 1358 1355 1353 1350 1347 1345 1342 1339 1335 1332 1328 1326 1322 1319 1316 1313 1309 1306 1302 1299 1295 1292 1288 1285 1281 1278 1275 1272 1269 1266 1263 1260 1258 1255 1252 1250 1249 1247 1246 1245 1244
1401 1401 1400 1400 1399 1399 1399 1398 1398 1397 1396 1395 1395 1394 1393 1393 1392 1392 1391 1391 1391 1390 1390 1390 1390 1389 1389 1388 1387 1386 1384 1383 1382 1380 1379 1377 1375 1373 1370 1368 1366 1364 1362 1360 1357 1355 1352 1350 1347 1344 1341 1338 1335 1332 1328 1325 1321 1318 1315 1312 1309 1305 1301 1298 1294 1291 1287 1283 1280 1277 1273 1270 1267 1264 1261 1258 1256 1253 1250 1248 1246 1245 1244 1243 1242
1396 1396 1396 1395 1395 1394 1394 1394 1394 1393 1392 1392 1391 1391 1390 1389 1389 1389 1388 1388 1388 1387 1387 1387 1387 1387 1386 1385 1384 1384 1383 1381 1380 1379 1377 1376 1374 1372 1370 1368 1366 1364 1362 1360 1357 1355 1352 1349 1347 1344 1341 1338 1336 1332 1329 1325 1321 1318 1315 1311 1308 1305 1301 1297 1293 1289 1286 1282 1278 1275 1272 1269 1266 1262 1259 1257 1254 1251 1249 1247 1245 1243 1242 1241 1241
1392 1391 1391 1391 1390 1390 1390 1390 1390 1390 1389 1388 1388 1387 1387 1386 1386 1386 1385 1385 1385 1384 1384 1384 1384 1384 1384 1383 1382 1381 1380 1379 1378 1377 1375 1374 1372 1371 1369 1367 1365 1363 1361 1359 1357 1354 1351 1349 1346 1344 1341 1338 1335 1332 1329 1326 1322 1319 1315 1311 1307 1304 1301 1297 1293 1289 1285 1281 1277 1274 1271 1267 1264 1261 1258 1255 1253 1250 1248 1246 1244 1243 1241 1241 1240
1387 1387 1387 1387 1386 1386 1386 1386 1386 1386 1386 1385 1385 1384 1384 1383 1383 1382 1382 1382 1382 1381 1381 1381 1381 1381 1380 1380 1380 1379 1378 1377 1376 1375 1373 1372 1370 1369 1367 1366 1364 1362 1360 1357 1355 1353 1351 1348 1345 1343 1340 1338 1335 1332 1329 1326 1322 1319 1316 1312 1308 1304 1301 1297 1293 1289 1285 1281 1277 1273 1270 1267 1264 1261 1258 1255 1252 1250 1247 1246 1244 1242 1241 1240 1240
1382 1382 1382 1382 1382 1382 1382 1382 1383 1382 1382 1382 1382 1381 1381 1380 1380 1379 1379 1379 1379 1379 1378 1378 1378 1378 1377 1377 1377 1376 1375 1374 1373 1372 1371 1369 1368 1366 1365 1364 1362 1360 1358 1356 1354 1352 1349 1347 1344 1342 1339 1336 1333 1331 1328 1325 1322 1319 1315 1312 1309 1305 1301 1298 1294 1290 1286 1282 1277 1274 1270 1267 1264 1261 1258 1255 1253 1250 1248 1246 1244 1243 1242 1241 1240
1378 1378 1378 1378 1378 1378 1379 1379 1379 1379 1379 1379 1378 1378 1378 1377 1377 1377 1376 1376 1376 1376 1376 1376 1375 1375 1375 1375 1374 1373 1372 1372 1371 1369 1368 1367 1365 1364 1363 1361 1360 1358 1356 1355 1353 1350 1348 1346 1343 1341 1338 1335 1332 1330 1327 1324 1321 1318 1315 1312 1308 1305 1301 1298 1294 1290 1286 1282 1278 1275 1271 1267 1264 1262 1259 1256 1253 1251 1248 1247 1245 1244 1242 1242 1241
1374 1374 1374 1375 1375 1375 1375 1376 1376 1376 1376 1376 1375 1375 1375 1375 1374 1374 1374 1373 1373 1373 1373 1373 1373 1372 1372 1372 1371 1370 1370 1369 1368 1367 1365 1364 1363 1361 1360 1358 1357 1355 1354 1352 1351 1349 1346 1344 1342 1339 1337 1334 1331 1329 1326 1323 1320 1317 1314 1311 1308 1305 1301 1298 1294 1291 1287 1283 1279 1276 1272 1269 1265 1263 1260 1257 1254 1252 1250 1248 1246 1245 1244 1243 1242
1370 1370 1371 1371 1371 1372 1372 1372 1372 1373 1373 1373 1372 1372 1372 1372 1371 1371 1371 1371 1370 1370 1370 1370 1370 1370 1369 1369 1368 1367 1367 1366 1365 1364 1362 1361 1360 1359 1357 1356 1354 1353 1351 1350 1348 1346 1344 1342 1340 1338 1335 1333 1330 1327 1325 1322 1319 1316 1314 1311 1308 1304 1301 1298 1295 1292 1288 1284 1280 1277 1273 1270 1267 1264 1261 1258 1256 1253 1252 1250 1248 1247 1246 1245 1244
1367 1367 1368 1368 1368 1369 1369 1369 1369 1369 1370 1370 1369 1369 1369 1369 1369 1369 1368 1368 1368 1368 1368 1367 1367 1367 1366 1366 1365 1364 1363 1363 1362 1361 1359 1358 1357 1356 1354 1353 1351 1350 1348 1347 1345 1344 1342 1340 1338 1336 1333 1331 1329 1326 1323 1321 1318 1316 1313 1310 1307 1304 1301 1298 1295 1292 1289 1285 1282 1278 1275 1272 1269 1266 1263 1260 1258 1255 1254 1252 1250 1249 1248 1247 1246
1364 1365 1365 1365 1365 1366 1366 1366 1366 1367 1367 1366 1366 1366 1366 1366 1366 1366 1366 1365 1365 1365 1365 1364 1364 1364 1363 1362 1362 1361 1360 1359 1358 1357 1356 1355 1354 1352 1351 1350 1348 1347 1345 1344 1342 1341 1339 1337 1335 1333 1331 1329 1326 1324 1322 1320 1317 1315 1312 1309 1307 1304 1302 1298 1295 1293 1289 1286 1283 1280 1277 1273 1271 1268 1265 1262 1260 1257 1256 1254 1253 1252 1250 1249 1249